Regional Weather Roundup
Issued by NWS

Home | Current Version | Previous Version | Graphics & Text | Print | Product List | Glossary On
Versions: 1 2 3 4 5 6 7 8 9 10 11 12 13 14 15 16 17 18 19 20 21 22 23 24 25 26 27 28 29 30 31 32 33 34 35 36 37 38 39 40 41 42 43 44 45 46 47 48 49 50
000
ASUS43 KDTX 232201
RWRMI
MICHIGAN HOURLY REGIONAL WEATHER ROUNDUP
NATIONAL WEATHER SERVICE DETROIT/PONTIAC MI
600 PM EDT SAT JUL 23 2016

NOTE: "FAIR" INDICATES FEW OR NO CLOUDS BELOW 12,000 FEET WITH NO
SIGNIFICANT WEATHER AND/OR OBSTRUCTION TO VISIBILITY.

MIZ047>049-052>055-059>063-066>070-074>076-081>083-232300-
SOUTHEAST LOWER MICHIGAN

CITY           SKY/WX    TMP DP  RH WIND       PRES   REMARKS
ADRIAN         CLOUDY    91  68  46 W7        29.96F HX  95
ALMA           PTSUNNY   91  62  38 SE6       29.96F HX  91
ANN ARBOR      PTSUNNY   94  64  37 NW8       29.95S HX  95
BAD AXE        CLOUDY    85  59  42 NE8       29.99R
CARO           MOSUNNY   88  57  35 CALM      29.97S
DETROIT CITY   CLOUDY    90  63  40 E10       29.95F HX  91
DETROIT        CLOUDY    94  59  31 N7        29.94F HX  93
FLINT          CLOUDY    96  56  26 NW5       29.96F HX  94
GROSSE ILE     CLOUDY    84  73  68 S8        29.94S HX  91
HOWELL         CLOUDY    92  51  25 CALM      29.98S

CITY           SKY/WX    TMP DP  RH WIND       PRES   REMARKS
JACKSON        MOSUNNY   90  61  37 NW3       29.97F HX  90
LAMBERTVILLE   CLOUDY    93  59  31 CALM      29.96S HX  92
LANSING        MOSUNNY   92  60  34 N5        29.97S HX  91
LAPEER         FAIR      87  63  45 E3        29.98F
MASON          MOSUNNY   88  66  48 CALM      29.97S HX  90
MONROE         CLOUDY    90  69  50 S10       29.94S HX  94
MT. CLEMENS    PTSUNNY   87  64  45 NE10      29.94F
PONTIAC        CLOUDY    90  56  31 NW7       29.97F
PORT HOPE        N/A     76  65  68 E5        29.98F
PORT HURON     SUNNY     82  61  47 N7        29.98F
TRI CITIES     MOSUNNY   89  63  41 E6        29.97S HX  90
MIDLAND        FAIR      89  61  39 E8        29.95S
TROY           CLOUDY    94  51  23 W7        29.98S HX  91
SAGINAW HB     CLOUDY    88  54  31 SE7       29.96S
$$
MIZ043>046-050>051-056>058-064>065-071>073-077>080-232300-
SOUTHWEST LOWER MICHIGAN

CITY           SKY/WX    TMP DP  RH WIND       PRES   REMARKS
BATTLE CREEK   CLOUDY    87  68  52 SW6       29.98F HX  90
BENTON HARBOR  CLOUDY    87  72  60 NW5       29.95S HX  93
BIG RAPIDS     PTSUNNY   89  57  33 W3        29.97S
COLDWATER      SUNNY     89  60  37 CALM      29.97F
FREMONT        PTSUNNY   88  72  58 W8        29.96S HX  94
HOLLAND        PTSUNNY   87  71  58 W7        29.97S HX  93
GRAND RAPIDS   PTSUNNY   91  62  37 CALM      29.96S HX  91
IONIA          FAIR      90  60  36 SE8       29.95F
KALAMAZOO      CLOUDY    90  63  40 VRB3      29.97S HX  91
LUDINGTON      PTSUNNY   83  67  58 SW6       29.96R
MARSHALL       SUNNY     90  64  42 SW3       29.97S HX  92
MOUNT PLEASANT CLOUDY    92  60  33 SE5       29.95F HX  91
MUSKEGON       CLOUDY    84  72  67 NW7       29.97R
SOUTH HAVEN    MOSUNNY   86  70  59 NW6       29.96R HX  91
$$
MIZ016>042-232300-
NORTHERN LOWER MICHIGAN

CITY           SKY/WX    TMP DP  RH WIND       PRES   REMARKS
ALPENA         CLOUDY    87  56  34 E9        29.97S
BEAVER ISLAND  CLOUDY    82  60  46 SE3       29.96F
BELLAIRE       CLOUDY    87  62  42 CALM      29.95S
CADILLAC       MOSUNNY   88  58  35 W3        29.98S
CHARLEVOIX     CLOUDY    83  62  48 N3        29.99S
FRANKFORT      MOSUNNY   85  62  45 W5        29.96R
GAYLORD        CLOUDY    87  55  33 VRB3      29.99F
GRAYLING       MOSUNNY   90  54  29 CALM      29.98S
HARBOR SPRINGS CLOUDY    80  67  63 CALM      29.95F
HOUGHTON LAKE  CLOUDY    87  55  33 SW6       29.99S
MANISTEE       CLOUDY    87  60  40 W6        29.96S
OSCODA         PTSUNNY   82  56  40 E7        29.97F
PELLSTON       CLOUDY    86  55  34 NW6       29.96F
ROGERS CITY    CLOUDY    81  55  41 NE3       29.98F
TRAVERSE CITY  CLOUDY    87  63  44 N6        29.94S
$$
MIZ007>008-015-232300-
EASTERN UPPER MICHIGAN

CITY           SKY/WX    TMP DP  RH WIND       PRES   REMARKS
KINROSS        MOSUNNY   85  57  38 N6        29.96F
MACKINAC ISLAN CLOUDY    82  57  42 CALM      29.96F
NEWBERRY       CLOUDY    83  60  46 S8        29.95F HAZE
S. S. MARIE    CLOUDY    86  58  38 NW6       29.95F
$$
MIZ004>006-011>014-085-232300-
CENTRAL UPPER MICHIGAN

CITY           SKY/WX    TMP DP  RH WIND       PRES   REMARKS
MANISTIQUE     CLOUDY    76  67  71 SW5       29.96R
ESCANABA       CLOUDY    81  61  50 S8        29.94R
MENOMINEE      PTSUNNY   81  68  64 E6        29.95F
SAWYER-GWINN   SUNNY     81  64  57 E6        29.96F
$$
MIZ001>003-009>011-084-232300-
WESTERN UPPER MICHIGAN

CITY           SKY/WX    TMP DP  RH WIND       PRES   REMARKS
IRON MOUNTAIN  PTSUNNY   83  63  50 S9        29.95S
HOUGHTON       CLOUDY    74  59  59 E10       29.94F
COPPER HARBOR    N/A     69  61  75 SE6       29.92F
IRONWOOD       CLOUDY    81  68  65 S9        29.89R
$$

ABBREVIATIONS USED IN REMARKS
   TC - TEMPERATURE IN CELSIUS
  WCI - WIND CHILL INDEX
   HX - HEAT INDEX
  VSB - VISIBILITY





USA.gov is the U.S. government's official web portal to all federal, state and local government web resources and services.